SCP
1 1 1 1 1 1 0 0 0 1 1 1 1 1 1 0 0 0 0 0 0 0 0 0 0 0 0 0 0 0 0 0
1 1 1 1 0 0 0 0 0 0 0 0 0 1 0 0 0 0 -0 -0 0 0 0 0 0 0 0 0 0 0 0 0
0 1 0 0 0 0 0 0 0 0 0 0 0 0 0 0 0 0 0 0 0 0 0 0 0 0 0 0 0 0 0 0
0 0 0 0 0 0 0 0 0 0 0 0 0 0 0 0 0 0 0 0 0 0 0 0 0 0 0 0 0 0 0 0
0 0 0 0 0 0 0 0 0 0 0 0 0 0 0 0 0 0 0 0 0 0 0 0 0 0 0 0 0 0 0 0
0 0 0 0 0 0 0 0 0 0 0 0 0 0 0 0 0 0 0 0 0 0 0 0 0 0 0 0 0 0 0 0
0 0 0 0 0 0 0 0 0 0 0 0 0 0 0 0 0 0 0 0 0 0 0 0 0 0 0 0 0 0 0 0
0 0 0 0 0 0 0 0 0 0 0 0 0 0 0 0 0 0 0 0 0 0 0 0 0 0 0 0 0 0 0 0
0 0 0 0 0 0 0 0 0 0 0 0 0 0 0 0 0 0 0 0 0 0 0 0 0 0 0 0 0 0 0 0
0 0 0 0 0 0 0 0 0 0 0 0 0 0 0 0 0 0 0 0 0 0 0 0 0 0 0 0 0 0 0 0
0 0 0 0 0 0 0 0 0 0 0 0 0 0 0 0 0 0 0 0 0 0 0 0 0 0 0 0 0 0 0 0
-0 0 0 0 0 0 0 0 0 0 0 0 0 0 0 0 0 0 0 0 0 0 0 0 0 0 0 0 0 0 0 0
-0 0 0 0 0 0 0 0 0 0 0 0 0 0 0 0 0 0 0 0 0 0 0 0 0 0 0 0 0 0 0 0
-0 -0 -0 0 0 0 0 0 0 0 0 0 0 0 0 0 0 0 0 0 0 0 0 0 0 0 0 0 0 0 0 0
-0 -0 -0 0 0 0 0 0 0 0 0 0 0 0 0 0 0 0 0 0 0 0 0 0 0 0 0 0 0 0 0 0
-0 -0 -0 0 -0 0 -0 0 0 0 0 0 0 0 0 0 0 0 0 0 0 0 0 0 0 0 0 0 0 0 0 0
0 0 0 0 -0 -0 -0 -0 -0 0 0 0 0 0 0 0 0 0 0 0 0 0 0 0 0 0 0 0 0 0 0 0
0 -0 0 0 0 -0 -0 -0 -0 -0 0 0 0 0 0 0 0 0 0 0 0 0 0 0 0 0 0 0 0 0 0 0
0 0 0 0 0 0 0 -0 -0 -0 -0 -0 -0 0 0 0 0 0 0 0 0 0 0 0 0 0 0 0 0 0 0 0
-0 0 0 0 0 0 0 0 0 0 -0 -0 -0 -0 -0 0 0 0 0 0 0 0 0 0 0 0 0 0 0 0 0 0
Wind_Speed_500mb
17 24 35 32 32 40 46 48 47 49 51 52 58 50 52 43 40 47 54 56 54 55 56 55 51 47 43 38 33 32 31 33
17 20 35 37 34 36 45 50 54 52 48 50 41 48 50 48 50 54 55 54 55 59 59 56 53 46 40 34 29 31 28 32
19 17 33 35 28 31 38 43 48 50 56 63 52 63 46 53 52 48 53 52 57 62 59 55 49 43 39 34 30 24 24 27
20 20 26 32 32 37 35 36 40 40 70 58 53 48 51 60 57 46 50 49 61 59 58 54 48 42 41 33 24 21 22 31
21 23 27 32 38 41 46 44 46 54 66 63 80 64 56 53 54 51 49 50 65 65 63 54 47 42 43 34 23 22 23 31
23 25 30 33 33 43 44 48 51 47 48 68 72 73 67 62 66 61 54 60 75 73 66 55 46 44 39 30 19 22 26 31
24 24 29 30 29 36 41 47 45 41 51 59 79 73 72 59 71 63 60 67 79 74 63 54 47 45 39 29 23 20 25 30
26 27 26 28 26 32 38 39 40 40 49 64 72 72 63 80 72 65 64 76 80 72 65 57 49 49 41 33 25 18 21 28
29 27 24 23 23 31 33 38 41 45 61 65 73 72 68 68 69 69 67 81 80 71 63 57 55 52 40 36 25 19 18 27
30 28 26 27 31 29 31 35 40 43 49 60 71 74 72 72 75 74 69 83 82 75 66 60 57 48 45 38 29 23 20 21
33 29 30 31 33 33 32 32 35 36 43 52 60 71 77 74 83 77 68 80 83 76 68 65 59 51 41 39 35 27 22 20
35 31 31 34 33 31 32 31 34 35 33 42 55 73 71 80 70 71 68 80 85 80 75 68 61 50 43 43 35 29 26 21
41 35 34 38 40 39 37 31 31 30 23 23 50 86 86 68 69 72 72 84 87 86 81 71 59 52 51 48 41 35 32 28
46 38 34 39 40 38 38 37 34 27 29 33 40 40 54 49 59 67 71 75 80 84 84 79 66 58 60 51 42 39 40 35
50 41 34 39 43 38 36 35 35 29 32 43 48 55 56 64 62 66 67 74 79 86 91 92 85 66 61 44 28 20 43 41
52 42 35 37 46 39 37 36 39 41 41 42 50 62 55 66 71 73 63 69 69 79 86 86 82 74 63 60 47 29 35 27
55 45 37 37 44 43 41 41 36 37 38 42 53 57 60 54 67 72 73 71 74 74 78 89 78 76 72 63 54 46 36 31
59 50 39 37 41 47 47 45 45 44 42 45 51 52 60 61 57 75 65 69 73 75 71 80 85 74 70 69 65 60 51 43
64 52 41 35 38 42 46 47 47 45 46 49 47 48 55 66 69 68 64 62 72 74 78 72 77 79 74 73 70 67 59 52
65 54 42 35 33 34 37 38 39 36 31 35 39 45 56 49 74 72 67 67 70 82 78 80 79 75 72 82 80 75 73 60
Wind_Direction_500mb
235 228 224 218 213 220 220 220 217 215 205 201 189 193 189 185 189 178 169 174 176 176 179 171 169 172 175 174 177 180 185 190
228 232 222 224 224 224 214 216 217 206 184 192 181 174 180 190 199 182 175 173 175 182 176 168 169 170 175 173 172 181 186 188
241 238 218 224 223 224 225 223 225 216 221 204 228 239 202 179 186 185 180 180 181 181 172 169 168 171 171 171 169 174 187 195
238 223 213 215 217 221 233 232 230 216 199 210 189 188 190 193 186 189 188 184 185 178 176 171 170 170 169 174 174 181 190 186
228 224 214 214 217 218 225 221 230 208 211 227 209 203 204 185 187 183 190 191 185 181 178 178 180 180 172 176 179 190 182 180
235 226 224 221 219 220 222 231 230 229 223 211 211 194 199 195 208 193 190 191 186 185 183 182 183 183 175 175 171 176 170 169
232 233 229 224 223 215 221 228 229 231 216 207 199 203 199 203 193 188 192 196 189 187 185 185 184 182 179 177 159 156 169 170
232 231 225 223 218 215 220 226 228 227 218 209 199 194 197 195 187 190 194 194 192 190 187 185 185 184 177 175 167 155 169 172
230 223 220 217 208 219 222 222 222 222 212 201 201 199 193 193 197 192 195 193 193 193 190 189 183 182 183 178 178 166 170 179
223 224 225 208 206 214 223 222 217 217 218 217 208 206 210 216 204 197 195 193 194 197 192 186 182 187 187 180 183 180 184 184
220 224 225 214 209 210 222 216 216 217 223 216 212 212 210 210 206 198 197 193 194 196 193 192 189 191 190 187 185 189 194 200
220 227 224 216 197 202 218 220 216 220 228 230 220 203 205 203 200 201 197 193 196 197 196 193 194 193 191 189 191 196 203 213
221 230 222 204 195 205 213 211 204 211 214 215 209 205 204 201 202 201 200 196 196 197 198 195 189 192 187 187 198 202 205 214
220 230 224 211 204 207 217 212 201 206 192 196 181 186 187 201 198 200 201 196 196 197 199 194 195 194 189 187 191 202 209 214
217 226 226 212 203 211 219 206 209 211 203 203 189 180 188 199 199 204 203 200 200 200 200 203 198 191 197 192 170 198 207 214
215 221 225 217 206 209 226 216 206 211 204 206 211 205 201 203 200 206 207 206 208 206 205 207 207 197 196 208 211 211 192 205
211 215 223 225 209 211 219 221 223 218 224 217 221 222 221 219 212 204 209 209 209 209 207 205 208 213 209 207 214 217 216 211
209 212 220 228 218 213 215 220 223 228 230 236 242 234 229 225 223 209 206 211 208 212 210 209 208 219 228 225 220 218 219 232
209 210 218 224 223 220 220 220 225 235 240 243 243 242 231 233 226 219 215 215 209 211 213 210 220 222 228 230 229 229 229 227
208 211 213 217 224 227 225 227 229 232 228 230 233 232 231 232 225 221 224 222 220 216 218 218 215 227 230 233 232 234 233 228
Wind_Speed_850mb
17 24 35 32 32 40 46 48 47 49 51 52 58 50 52 43 40 47 54 56 54 55 56 55 51 47 43 38 33 32 31 33
17 20 35 37 34 36 45 50 54 52 48 50 41 48 50 48 50 54 55 54 55 59 59 56 53 46 40 34 29 31 28 32
19 17 33 35 28 31 38 43 48 50 56 63 52 63 46 53 52 48 53 52 57 62 59 55 49 43 39 34 30 24 24 27
20 20 26 32 32 37 35 36 40 40 70 58 53 48 51 60 57 46 50 49 61 59 58 54 48 42 41 33 24 21 22 31
21 23 27 32 38 41 46 44 46 54 66 63 80 64 56 53 54 51 49 50 65 65 63 54 47 42 43 34 23 22 23 31
23 25 30 33 33 43 44 48 51 47 48 68 72 73 67 62 66 61 54 60 75 73 66 55 46 44 39 30 19 22 26 31
24 24 29 30 29 36 41 47 45 41 51 59 79 73 72 59 71 63 60 67 79 74 63 54 47 45 39 29 23 20 25 30
26 27 26 28 26 32 38 39 40 40 49 64 72 72 63 80 72 65 64 76 80 72 65 57 49 49 41 33 25 18 21 28
29 27 24 23 23 31 33 38 41 45 61 65 73 72 68 68 69 69 67 81 80 71 63 57 55 52 40 36 25 19 18 27
30 28 26 27 31 29 31 35 40 43 49 60 71 74 72 72 75 74 69 83 82 75 66 60 57 48 45 38 29 23 20 21
33 29 30 31 33 33 32 32 35 36 43 52 60 71 77 74 83 77 68 80 83 76 68 65 59 51 41 39 35 27 22 20
35 31 31 34 33 31 32 31 34 35 33 42 55 73 71 80 70 71 68 80 85 80 75 68 61 50 43 43 35 29 26 21
41 35 34 38 40 39 37 31 31 30 23 23 50 86 86 68 69 72 72 84 87 86 81 71 59 52 51 48 41 35 32 28
46 38 34 39 40 38 38 37 34 27 29 33 40 40 54 49 59 67 71 75 80 84 84 79 66 58 60 51 42 39 40 35
50 41 34 39 43 38 36 35 35 29 32 43 48 55 56 64 62 66 67 74 79 86 91 92 85 66 61 44 28 20 43 41
52 42 35 37 46 39 37 36 39 41 41 42 50 62 55 66 71 73 63 69 69 79 86 86 82 74 63 60 47 29 35 27
55 45 37 37 44 43 41 41 36 37 38 42 53 57 60 54 67 72 73 71 74 74 78 89 78 76 72 63 54 46 36 31
59 50 39 37 41 47 47 45 45 44 42 45 51 52 60 61 57 75 65 69 73 75 71 80 85 74 70 69 65 60 51 43
64 52 41 35 38 42 46 47 47 45 46 49 47 48 55 66 69 68 64 62 72 74 78 72 77 79 74 73 70 67 59 52
65 54 42 35 33 34 37 38 39 36 31 35 39 45 56 49 74 72 67 67 70 82 78 80 79 75 72 82 80 75 73 60
Wind_Direction_850mb
235 228 224 218 213 220 220 220 217 215 205 201 189 193 189 185 189 178 169 174 176 176 179 171 169 172 175 174 177 180 185 190
228 232 222 224 224 224 214 216 217 206 184 192 181 174 180 190 199 182 175 173 175 182 176 168 169 170 175 173 172 181 186 188
241 238 218 224 223 224 225 223 225 216 221 204 228 239 202 179 186 185 180 180 181 181 172 169 168 171 171 171 169 174 187 195
238 223 213 215 217 221 233 232 230 216 199 210 189 188 190 193 186 189 188 184 185 178 176 171 170 170 169 174 174 181 190 186
228 224 214 214 217 218 225 221 230 208 211 227 209 203 204 185 187 183 190 191 185 181 178 178 180 180 172 176 179 190 182 180
235 226 224 221 219 220 222 231 230 229 223 211 211 194 199 195 208 193 190 191 186 185 183 182 183 183 175 175 171 176 170 169
232 233 229 224 223 215 221 228 229 231 216 207 199 203 199 203 193 188 192 196 189 187 185 185 184 182 179 177 159 156 169 170
232 231 225 223 218 215 220 226 228 227 218 209 199 194 197 195 187 190 194 194 192 190 187 185 185 184 177 175 167 155 169 172
230 223 220 217 208 219 222 222 222 222 212 201 201 199 193 193 197 192 195 193 193 193 190 189 183 182 183 178 178 166 170 179
223 224 225 208 206 214 223 222 217 217 218 217 208 206 210 216 204 197 195 193 194 197 192 186 182 187 187 180 183 180 184 184
220 224 225 214 209 210 222 216 216 217 223 216 212 212 210 210 206 198 197 193 194 196 193 192 189 191 190 187 185 189 194 200
220 227 224 216 197 202 218 220 216 220 228 230 220 203 205 203 200 201 197 193 196 197 196 193 194 193 191 189 191 196 203 213
221 230 222 204 195 205 213 211 204 211 214 215 209 205 204 201 202 201 200 196 196 197 198 195 189 192 187 187 198 202 205 214
220 230 224 211 204 207 217 212 201 206 192 196 181 186 187 201 198 200 201 196 196 197 199 194 195 194 189 187 191 202 209 214
217 226 226 212 203 211 219 206 209 211 203 203 189 180 188 199 199 204 203 200 200 200 200 203 198 191 197 192 170 198 207 214
215 221 225 217 206 209 226 216 206 211 204 206 211 205 201 203 200 206 207 206 208 206 205 207 207 197 196 208 211 211 192 205
211 215 223 225 209 211 219 221 223 218 224 217 221 222 221 219 212 204 209 209 209 209 207 205 208 213 209 207 214 217 216 211
209 212 220 228 218 213 215 220 223 228 230 236 242 234 229 225 223 209 206 211 208 212 210 209 208 219 228 225 220 218 219 232
209 210 218 224 223 220 220 220 225 235 240 243 243 242 231 233 226 219 215 215 209 211 213 210 220 222 228 230 229 229 229 227
208 211 213 217 224 227 225 227 229 232 228 230 233 232 231 232 225 221 224 222 220 216 218 218 215 227 230 233 232 234 233 228